Domov               UVHVVR             MKGP            O straneh              
ZDRAVSTVENO VARSTVO RASTLIN
  MREŽA AGROMET. POSTAJ
 ► PROGNOSTIČNA OBVESTILA
AGROMETEOROLOŠKI PODATKI -
ARSO
OBVLADOVANJE TVEGANJ ZARADI
NEUGODNIH VREMENSKIH RAZMER
  ► NARAVNE NESREČE
  ► SUŠA/MOČA
  ► NAMAKANJE
  ► ŽLED (gozdarstvo)
KARTOGRAFSKI PRIKAZI
SPLETNE POVEZAVE
PROJEKTI IN PUBLIKACIJE

AGROMETEOROLOŠKA MREŽA: VREMENSKE POSTAJE IN FENOLOŠKA OPAZOVANJA

Pregled podatkov za lokacijo Vnajnarje, meteorološka postaja 27470

Pregled senzorjev na lokaciji

ID Ime Zadnja
vrednost
Datum
zadnje
spremembe
Tip
senzorja
3759 Omočenost lista (U) 0 U 25.2.2018 16:30 A730WET
3756 Padavine (mm) 0 mm 25.2.2018 16:30 Generic 0.2 mm
3757 Relativna vlaga 2 m (% RH) 61,03 % RH 25.2.2018 16:30 Generic 0 - 100 %
3758 Temperatura 2 m (°C) -8,18 °C 25.2.2018 16:30 Generic -40 - +60 °C

Pregled podatkov zadnjih 24 ur

Zap.
št.
Datum in čas Vnajnarje
Omočenost
lista
Padavine Relativna
vlaga
2
m
Temperatura
2
m
1 25.2.2018 16:30 0 0 61 -8,2
2 25.2.2018 16:00 0 0 61,4 -7,8
3 25.2.2018 15:30 0 0 59,4 -7,1
4 25.2.2018 15:00 0 0 59,8 -7,4
5 25.2.2018 14:30 0 0 58 -7
6 25.2.2018 14:00 0 0 56,7 -6,9
7 25.2.2018 13:30 0 0 56,5 -7
8 25.2.2018 13:00 0 0 57,4 -7,1
9 25.2.2018 12:30 0 0 57 -7,2
10 25.2.2018 12:00 0 0 57,7 -7,6
11 25.2.2018 11:30 0 0 55,4 -8,5
12 25.2.2018 11:00 0 0 60,1 -9,7
13 25.2.2018 10:30 0 0 59,6 -9,5
14 25.2.2018 10:00 0 0 57,9 -9,8
15 25.2.2018 09:30 0 0 61,4 -10,2
16 25.2.2018 09:00 0 0 67,3 -10,8
17 25.2.2018 08:30 0 0 69,7 -11,2
18 25.2.2018 08:00 0 0 73,4 -11,2
19 25.2.2018 07:30 0 0 77,1 -10,8
20 25.2.2018 07:00 0 0 78,3 -10,7
21 25.2.2018 06:30 0 0 76 -10,4
22 25.2.2018 06:00 0 0 74,7 -10,1
23 25.2.2018 05:30 0 0 72,3 -9,8
24 25.2.2018 05:00 0 0 70,9 -9,7
25 25.2.2018 04:30 0 0 67,6 -9,5
26 25.2.2018 04:00 0 0 67,7 -9,3
27 25.2.2018 03:30 0 0 68,6 -9,1
28 25.2.2018 03:00 0 0 67,2 -8,9
29 25.2.2018 02:30 0 0 66,3 -8,7
30 25.2.2018 02:00 0 0 64,8 -8,5
31 25.2.2018 01:30 0 0 69,8 -8,4
32 25.2.2018 01:00 0 0 74,2 -8,4
33 25.2.2018 00:30 0 0 75,9 -8,1
34 25.2.2018 00:00 0 0 75,2 -7,6
35 24.2.2018 23:30 0 0 80,7 -7,3
36 24.2.2018 23:00 0 0 79,5 -7
37 24.2.2018 22:30 0 0 76,8 -6,9
38 24.2.2018 22:00 0 0 76,3 -6,6
39 24.2.2018 21:30 0 0 77,8 -6,5
40 24.2.2018 21:00 0 0 77,6 -6,3
41 24.2.2018 20:30 0 0 80,8 -6,2
42 24.2.2018 20:00 0 0 79,5 -6,1
43 24.2.2018 19:30 0 0 83,1 -6
44 24.2.2018 19:00 0 0 83,6 -5,8
45 24.2.2018 18:30 0 0 81,9 -5,6
46 24.2.2018 18:00 0 0 84 -5,3
47 24.2.2018 17:30 1 0 86,1 -5
48 24.2.2018 17:00 1 0 89,6 -4,6
© 2011 Ministrstvo za kmetijstvo, gozdarstvo in prehrano. Vse pravice pridržane.